#timestamp,LO_Frequency,Hit,StdDev 
1569852015.2,286046998.3,N
1569852035.0,286046999.2,N
1569852035.9,286046999.2,N
1569852055.8,286046998.1,N
1569852075.6,286047000.8,N
1569852095.4,286047000.9,N
1569852115.3,286047001.4,N
1569852135.1,286047001.8,N
1569852155.9,286047003.6,N
1569852175.7,286047004.1,N
1569852195.5,286047004.1,N
1569852215.4,286047003.4,N
1569852235.2,286047003.5,N
1569852255.1,286047000.2,N
1569852256.0,286047000.2,N
1569852275.8,286047000.6,N
1569852295.6,286047000.5,N
1569852315.5,286047002.1,N
1569852335.3,286046999.8,N
1569852355.2,286047002.8,N
1569852375.9,286047000.9,N
1569852395.7,286046998.3,N
1569852415.6,286046998.3,N
1569852435.4,286046998.2,N
1569852455.3,286047000.4,N
1569852475.1,286047000.1,N
1569852476.0,286047000.1,N
1569852495.8,286047000.5,N
1569852515.7,286046998.6,N
1569852535.5,286046998.3,N
1569852555.4,286047001.2,N
1569852575.2,286047000.7,N
1569852595.0,286047002.7,N
1569852595.9,286047002.7,N
1569852615.8,286047002.3,N
1569852635.6,286047000.5,N
1569852655.4,286046999.8,N
1569852675.3,286047001.9,N
1569852695.1,286047001.6,N
1569852715.9,286047002.3,N
1569852735.7,286047000.5,N
1569852755.5,286046999.7,N
1569852775.4,286047002.6,N
1569852795.2,286047002.3,N
1569852815.1,286047002.5,N
1569852816.0,286047002.5,N
1569852835.8,286047002.7,N
1569852855.6,286047000.2,N
1569852875.5,286046999.8,N
1569852895.3,286047000.9,N
1569852915.1,286047002.2,N
1569852935.9,286047002.5,N
1569852955.7,286047000.3,N
1569852975.6,286047002.4,N
1569852995.4,286047002.5,N
1569853015.2,286047000.1,N
1569853035.1,286047000.3,N
1569853036.0,286047000.3,N
1569853055.8,286047002.8,N
1569853075.7,286047004.0,Y
1569853095.5,286047002.7,P
1569853115.3,286047000.1,N
1569853135.2,286047000.4,N
1569853155.0,286046999.8,N
1569853155.9,286046999.8,N
1569853175.8,286047002.7,N
1569853195.6,286047001.7,N
1569853215.4,286047001.5,N
1569853235.3,286047000.1,N
1569853255.1,286047002.6,N
1569853275.9,286047002.2,N
1569853295.7,286047002.4,N
1569853315.5,286046999.7,N
1569853335.4,286047002.8,N
1569853355.2,286046999.8,N
1569853375.0,286046999.7,N
1569853376.0,286046999.7,N
1569853395.8,286046999.9,N
1569853415.6,286047001.2,N
1569853435.5,286047001.2,N
1569853455.3,286047000.3,N
1569853475.1,286047000.3,N
1569853495.9,286047000.3,N
1569853515.7,286047001.5,N
1569853535.6,286047002.1,N
1569853555.4,286046999.8,N
1569853575.2,286047002.0,N
1569853595.1,286046999.8,N
1569853596.0,286046999.8,N
1569853615.8,286047000.1,N
1569853635.6,286047000.4,N
1569853655.5,286047000.0,N
1569853675.3,286047000.3,N
1569853695.2,286047000.3,N
1569853715.9,286046998.2,N
1569853735.7,286047000.7,N
1569853755.6,286047002.4,N
1569853775.4,286047000.0,N
1569853795.3,286047001.8,N
1569853815.1,286047003.7,Y
1569853816.0,286047003.7,P
1569853835.8,286047001.3,N
1569853855.7,286047002.5,N
1569853875.5,286047000.9,N
1569853895.3,286047000.5,N
1569853915.2,286047000.1,N
1569853935.0,286047002.4,N
1569853935.9,286047002.4,N
1569853955.8,286047000.3,N
1569853975.6,286047002.6,N
1569853995.4,286047003.9,Y
1569854015.3,286047004.1,P
1569854035.1,286047002.3,N
1569854055.9,286047000.6,N
1569854075.7,286047000.9,N
1569854095.5,286047000.2,N
1569854115.4,286047002.1,N
1569854135.2,286047003.3,N
1569854155.0,286047004.7,Y
1569854156.0,286047004.7,P
1569854175.8,286047005.9,P
1569854195.6,286047005.1,P
1569854215.5,286047001.7,N
1569854235.3,286047003.8,N
1569854255.1,286047004.4,N
1569854275.9,286047004.4,N
1569854295.7,286047003.2,N
1569854315.6,286047003.6,N
1569854335.4,286047005.4,Y
1569854355.2,286046999.8,P
1569854375.1,286047000.0,N
1569854376.0,286047000.0,N
1569854395.8,286047000.4,N
1569854415.7,286046998.3,N
1569854435.5,286047000.8,N
1569854455.3,286047000.7,N
1569854475.2,286046998.6,N
1569854495.0,286046996.5,N
1569854495.9,286046996.5,N
1569854515.8,286046997.8,N
1569854535.6,286046997.2,N
1569854555.4,286046999.3,N
1569854575.3,286046998.9,N
1569854595.1,286046998.1,N
1569854615.8,286046998.5,N
1569854635.7,286046998.6,N
1569854655.5,286046998.4,N
1569854675.4,286046999.3,N
1569854695.2,286046996.6,N
1569854715.0,286046996.7,N
1569854715.9,286046996.7,N
1569854735.8,286046996.6,N
1569854755.6,286046997.5,N
1569854775.4,286046997.4,N
1569854795.3,286046994.9,N
1569854815.1,286046994.9,N
1569854835.9,286046997.6,N
1569854855.7,286046995.0,N
1569854875.5,286046995.8,N
1569854895.4,286046995.8,N
1569854915.2,286046995.4,N
1569854935.1,286046993.9,Y
1569854936.0,286046993.9,P
1569854955.8,286046996.9,N
1569854975.6,286046997.3,N
1569854995.5,286046996.7,N
1569855015.3,286046995.4,Y
1569855035.1,286046998.6,P
1569855055.9,286046998.2,N
1569855075.7,286046998.9,N
1569855095.6,286046998.8,N
1569855115.4,286046998.9,N
1569855135.2,286046998.4,N
1569855155.1,286046999.3,N
1569855156.0,286046999.3,N
1569855175.8,286046998.0,N
1569855195.7,286046998.0,N
1569855215.5,286046997.7,Y
1569855235.3,286046999.6,P
1569855255.2,286046997.3,P
1569855275.0,286046997.0,P
1569855275.9,286046997.0,N
1569855295.8,286046999.4,N
1569855315.6,286046997.9,N
1569855335.4,286046995.4,Y
1569855355.3,286046999.0,P
1569855375.1,286046999.4,N
1569855395.8,286047000.7,N
1569855415.7,286046998.2,N
1569855435.5,286047000.6,N
1569855455.4,286046999.7,N
1569855475.2,286046999.7,N
1569855495.0,286046998.5,N
1569855495.9,286046998.5,N
1569855515.8,286046998.6,N
1569855535.6,286046997.0,Y
1569855555.5,286046996.6,P
1569855575.3,286046999.1,N
1569855595.1,286046999.0,N
